FENGYUN 1C DEB

Satellite information

Favourite Embed

Satellite Type and Status

DEBRISIN ORBIT

Key statistics

Satellite FENGYUN 1C DEB at a glance.

Uptime

9715

Days in orbit

Revolutions

≈ 14.3

Per day

Orbit

SSO

Sun Synchronous Orbit

Inclination

98.9

Latest

Satellite identification and parameters

Extended collection of information and parameters for FENGYUN 1C DEB.

Object identification

Identified? True

Debris? True

Object name: FENGYUN 1C DEB

International designator: 1999-025CCZ

Object number (NORAD): 31691

Object ID (CCSDS): 31691

Country: PEOPLES REPUBLIC OF CHINA (PRC)

Current information (Y/N): Y

RCS size: SMALL

Orbital parameters

Period: 100.972 minutes

Inclination: 98.881 deg

SMA: 7182.802 km

Apoapsis: 848.564 km

Periapsis: 760.77 km

RAAN: 72.9414 deg

Eccentricy: 0.00611137

Argument of periapsis: 239.7634 deg

Mean anomaly: 119.7486 deg

Mean motion: 14.26139263 rev/day

Mean motion (dot): 0.00008591 rev/day2

B* drag term: 0.0035356607 1/REarth

Two-line elements (TLE)

Creation date: Dec. 13, 2025, 4:32 a.m.

Reference frame: TEME

Reference center: EARTH

Epoch: Dec. 12, 2025, 12:19 p.m. UTC

TLE line 0: 0 FENGYUN 1C DEB

TLE line 1: 1 31691U 99025CCZ 25346.51333953 .00008591 00000-0 35357-2 0 9995

TLE line 2: 2 31691 98.8810 72.9414 0061114 239.7634 119.7486 14.26139263641082

Live tracking on map

Real-time ground track for satellite FENGYUN 1C DEB.

In-orbit conjunctions

A list of the most updated potential collisions computed for object FENGYUN 1C DEB.

Target Orbit TCA Probability of collision Miss distance Type
COSMOS 1980 LEO 2025-05-15 14:42:47 0.0001165147 676.0 (m) PAYLOAD

Associated space launch

Chinese polar orbiting meteorological satellite

FENGYUN 1C DEB was lifted into orbit during the mission ‘Long March 4B | Feng Yun 1C’, on board a Long March 4B space rocket.

The launch took place on May 10, 1999, 1:33 a.m. from Launch Complex 7.

For more information about the launch, click the button.

Launch to space Long March 4B | Feng Yun 1C
Long March 4B | Feng Yun 1C

Agency: N/A

Status: Launch Successful

Launch date: May 10, 1999, 1:33 a.m. UTC

Rocket: Long March 4B

Launch pad: Launch Complex 7

Location: Taiyuan Satellite Launch Center, People's Republic of China

...

Latest news about this satellite

There are no fresh news available about this satellite. Check back as we update our databases every day.


Newsletter sign-up

Weekly statistics, charts and insights to help you stay on top of the space industry.